Regional Weather Roundup
Issued by NWS Sterling, VA

Home | Current Version | Previous Version | Text Only | Print | Product List | Glossary On
Versions: 1 2 3 4 5 6 7 8 9 10 11 12 13 14 15 16 17 18 19 20 21 22 23 24 25 26 27 28 29 30 31 32 33 34 35 36 37 38 39 40 41 42 43 44 45 46 47 48 49 50
000
ASUS41 KLWX 221010
RWRLWX

REGIONAL WEATHER ROUNDUP
NATIONAL WEATHER SERVICE BALTIMORE MD/WASHINGTON DC
600 AM EDT FRI MAY 22 2015

Note: "FAIR" indicates few or no clouds below 12,000 feet
with no significant weather and/or obstructions to visibility.
 TC=TEMPERATURE CELSIUS

 * =Non NWS site. Station does not report precipitation (e.g. rain,
    snow, etc.), thunder, or fog.

DCZ001-MDZ009-015-VAZ040>042-051-053>054-221100-
WASHINGTON METRO

CITY           SKY/WX    TMP DP  RH WIND       PRES   REMARKS
WASHINGTON NAT PTCLDY    53  44  71 SW3       30.04R
DULLES         PTCLDY    48  42  80 CALM      30.03R
ANDREWS AFB    CLEAR     50  45  83 W8        30.02R
FT BELVOIR     CLEAR     46  43  87 CALM      30.04R FOG
QUANTICO       CLEAR     51  43  74 NW8       30.06R
COLLEGE PARK*  CLEAR     46  46 100 CALM      30.03R
LEESBURG*      CLEAR     50  45  81 NW7G16    30.05R
GAITHERSBURG*  CLEAR     46  39  76 CALM      30.06R

$$

MDZ006>007-011-014-221100-
BALTIMORE METRO

CITY           SKY/WX    TMP DP  RH WIND       PRES   REMARKS
BWI AIRPORT    PTCLDY    49  44  83 SW5       30.01R
MD SCIENCE CTR   N/A     52  43  71 MISG      30.01R
MARTIN STATE   CLEAR     52  46  82 W8        30.01R
ANNAPOLIS      PTCLDY    50  46  86 W6        30.01R
FORT MEADE*      N/A     45  43  93 SW3       30.04R

$$

MDZ012-015-019>023-221100-
MARYLAND EASTERN SHORE

CITY           SKY/WX    TMP DP  RH WIND       PRES   REMARKS
OCEAN CITY     CLEAR     50  47  89 NW10      29.96R FOG
SALISBURY      CLEAR     51  49  92 W8        29.98R
BAY BRIDGE AP*   N/A    N/A N/A N/A NW10      30.02R
CAMBRIDGE*     CLEAR     55  46  71 NW14G21   29.99R
EASTON*        CLEAR     54  54 100 NW10      30.03R

$$

MDZ017>025-221100-
SOUTHERN MARYLAND

CITY           SKY/WX    TMP DP  RH WIND       PRES   REMARKS
PATUXENT RIVER PTCLDY    52  47  83 W14       30.01R
ST INIGOES     CLEAR     52  47  83 NW6       30.02R
LEONARDTOWN*   CLEAR     50  45  81 W8        30.04R

$$

MDZ003>005-221100-
NORTH CENTRAL MARYLAND

CITY           SKY/WX    TMP DP  RH WIND       PRES   REMARKS
FREDERICK*     CLEAR     50  45  81 W5        30.06R
HAGERSTOWN APT CLEAR     46  41  82 S5        30.04R
WESTMINSTER*   CLEAR     48  43  81 SW3       30.02R

$$

MDZ501>502-221100-
WESTERN MARYLAND

CITY           SKY/WX    TMP DP  RH WIND       PRES   REMARKS
OAKLAND*       CLEAR     37 N/A N/A W10       30.08R
CUMBERLAND*    CLEAR     52  39  62 NW5       30.11R

$$

VAZ025>031-221100-
SHENANDOAH VALLEY

CITY           SKY/WX    TMP DP  RH WIND       PRES   REMARKS
WINCHESTER*    CLEAR     50  36  57 W9        30.05S
FRONT ROYAL*   FAIR      46  41  81 S5        30.05S
LURAY*         FAIR      46  43  87 SW3       30.07R
NEW MARKET*    FAIR      42  41  97 CALM      30.08R
STAUNTON*      CLEAR     42  39  90 CALM      30.11R
WAYNESBORO*    FAIR      47  38  72 SW3       30.10R

$$

WVZ021-048>050-054>055-221100-
EASTERN WEST VIRGINIA PANHANDLE

CITY           SKY/WX    TMP DP  RH WIND       PRES   REMARKS
MARTINSBURG    CLEAR     43  40  89 S5        30.05R
PETERSBURG*    CLEAR     41  38  89 CALM      30.11R

$$

VAZ036>039-050-221100-
CENTRAL FOOTHILLS

CITY           SKY/WX    TMP DP  RH WIND       PRES   REMARKS
CHARLOTTESVILL CLEAR     52  40  63 NW5       30.07R
CULPEPER*      CLEAR     42  41  96 CALM      30.06R
ORANGE*        CLEAR     50  43  76 CALM      30.08R
GORDONSVILLE*  FAIR      46  44  91 NW7       30.06R
WARRENTON*     FAIR      44  43  96 CALM      30.04S

$$

VAZ055>057-221100-
NORTH AND CENTRAL PIEDMONT

CITY           SKY/WX    TMP DP  RH WIND       PRES   REMARKS
FREDERICKSBRG* CLEAR     51  48  90 W3        30.05R
STAFFORD*      CLEAR     47  43  85 NW10      30.09R

$$

NCZ024-NYZ072-PAZ021-071-VAZ022-071-221100-
OTHER REGIONAL OBSERVATIONS

CITY           SKY/WX    TMP DP  RH WIND       PRES   REMARKS
NEW YORK CITY  CLEAR     55  42  61 MISG      29.91R
PHILADELPHIA   CLEAR     53  44  71 W9        29.95R
PITTSBURGH     PTCLDY    44  38  79 W6        30.06R
ROANOKE        PTCLDY    51  39  63 NW14      30.14R
RICHMOND       PTCLDY    52  47  83 NW6       30.06R
RALEIGH        PTCLDY    54  46  74 N6        30.08R

$$

ANZ530>537-221100-
MARINE OBSERVATIONS

STATION/POSITION TIME  TEMP    WIND        PRES
                       AIR SEA DIR/SP/G
                 (UTC) (F)     (DEG/KT/KT) (MB)
THOMAS PT LIGHT  1000   52 65  290/ 16/ 18 1016.6R
BALT KEY BRIDGE  0900   54     270/  9/ 11 1014.9R
LEWISETTA        0900   56 68              1015.8R
PINEY POINT      0912          350/ 23/ 25   N/A

$$




USA.gov is the U.S. government's official web portal to all federal, state and local government web resources and services.